Weather History for KFLO - September, 2013

Change the Weather History Date:

Friday, September 6, 2013

  Actual Average Record
Temperature  
Mean Temperature 78 °F 77 °F  
Max Temperature 88 °F 87 °F 101 °F (1954)
Min Temperature 67 °F 67 °F 50 °F (1997)
Degree Days  
Heating Degree Days 0 0  
Month to date heating degree days 0 0  
Since 1 July heating degree days 0 0  
Cooling Degree Days 13 12  
Month to date cooling degree days 100 75  
Year to date cooling degree days 1727 1745  
Growing Degree Days 26 (Base 50)    
Moisture  
Dew Point 64 °F    
Average Humidity 66    
Maximum Humidity 87    
Minimum Humidity 45    
Precipitation  
Precipitation 0.00 in 0.13 in 2.89 in (1974)
Month to date precipitation 0.08 0.81  
Year to date precipitation 46.54 31.29  
Sea Level Pressure  
Sea Level Pressure 30.08 in    
Wind  
Wind Speed 7 mph (NNE)    
Max Wind Speed 13 mph    
Max Gust Speed 17 mph    
Visibility 10 miles    
Events      
T = Trace of Precipitation, MM = Missing Value Source: NWS Daily Summary

Daily Weather History Graph

Daily Weather History Graph

Search for Another Location

Airport or City:

Trip Planner

Search our weather history database for the weather conditions in past years. The results will help you decide how hot, cold, wet, or windy it might be!

Date:

Astronomy

Sep. 06, 2013 Rise Set
Actual Time 6:55 AM EDT 7:37 PM EDT
Civil Twilight 6:30 AM EDT 8:03 PM EDT
Nautical Twilight 6:00 AM EDT 8:32 PM EDT
Astronomical Twilight 5:30 AM EDT 9:03 PM EDT
Moon 8:01 AM EDT (9/6) 8:07 PM EDT (9/6)
Length of Visible Light 13h 32m
Length of Day
12h 41m
New Moon, 1% of the Moon is Illuminated
Sep 6
New Moon
Sep 12
First Quarter
Sep 19
Full
Sep 26
Last Quarter
Oct 4
New

Hourly Weather History & Observations

Time (EDT) Temp. Heat Index Dew Point Humidity Pressure Visibility Wind Dir Wind Speed Gust Speed Precip Events Conditions
12:53 AM 73.9 °F - 66.9 °F 79% 30.06 in 10.0 mi North 4.6 mph - N/A   Clear
1:53 AM 71.1 °F - 66.0 °F 84% 30.07 in 10.0 mi Calm Calm - N/A   Clear
2:53 AM 69.1 °F - 64.9 °F 87% 30.06 in 10.0 mi Calm Calm - N/A   Clear
3:53 AM 69.1 °F - 64.0 °F 84% 30.06 in 10.0 mi North 5.8 mph - N/A   Clear
4:53 AM 70.0 °F - 63.0 °F 78% 30.07 in 10.0 mi North 5.8 mph - N/A   Clear
5:53 AM 69.1 °F - 62.1 °F 78% 30.07 in 10.0 mi North 5.8 mph - N/A   Clear
6:53 AM 66.9 °F - 62.1 °F 84% 30.09 in 10.0 mi North 6.9 mph - N/A   Clear
7:53 AM 68.0 °F - 62.1 °F 81% 30.10 in 10.0 mi NNE 8.1 mph - N/A   Clear
8:53 AM 72.0 °F - 63.0 °F 73% 30.12 in 10.0 mi NE 11.5 mph - N/A   Clear
9:53 AM 75.9 °F - 63.0 °F 64% 30.12 in 10.0 mi NE 9.2 mph - N/A   Clear
10:53 AM 79.0 °F - 64.0 °F 60% 30.13 in 10.0 mi NNE 10.4 mph - N/A   Clear
11:53 AM 81.0 °F 82.7 °F 64.9 °F 58% 30.13 in 10.0 mi North 11.5 mph - N/A   Clear
12:53 PM 84.0 °F 86.3 °F 66.0 °F 55% 30.12 in 10.0 mi ENE 10.4 mph - N/A   Clear
1:53 PM 86.0 °F 87.6 °F 64.9 °F 49% 30.10 in 10.0 mi North 8.1 mph - N/A   Clear
2:53 PM 87.1 °F 88.9 °F 64.9 °F 48% 30.09 in 10.0 mi NNE 10.4 mph - N/A   Partly Cloudy
3:53 PM 87.1 °F 88.3 °F 64.0 °F 46% 30.07 in 10.0 mi NNW 8.1 mph - N/A   Partly Cloudy
4:53 PM 86.0 °F 86.8 °F 63.0 °F 46% 30.05 in 10.0 mi NE 8.1 mph - N/A   Clear
5:53 PM 86.0 °F 86.3 °F 62.1 °F 44% 30.04 in 10.0 mi NE 4.6 mph - N/A   Clear
6:53 PM 84.0 °F 85.4 °F 64.0 °F 51% 30.04 in 10.0 mi North 4.6 mph - N/A   Clear
7:53 PM 79.0 °F - 66.0 °F 64% 30.04 in 10.0 mi NNE 4.6 mph - N/A   Clear
8:53 PM 75.0 °F - 66.0 °F 73% 30.07 in 10.0 mi NE 4.6 mph - N/A   Clear
9:53 PM 75.0 °F - 66.0 °F 73% 30.08 in 10.0 mi NE 4.6 mph - N/A   Clear
10:53 PM 73.0 °F - 66.0 °F 79% 30.08 in 10.0 mi North 6.9 mph - N/A   Clear
11:53 PM 71.1 °F - 64.9 °F 81% 30.08 in 10.0 mi North 6.9 mph - N/A   Clear